Погода в Пахотном Угле

Россия / Тамбовская область     52°58′40″N   41°54′20″E
темп.,
°C
ветер,
м/с
пор.,
м/с
влажн.,
%
обл.,
%
осадки,
мм/ч
давл.,
гПа
погр.,
м
28 февраля, вс
вс2800:00−10ссз3895100 0.1 1012284
03:00−12сз369694 0.1 1014165
06:00−12сз359679 0.0 1014135
09:00−10сз369382 0.1 1015298
12:00−7сз358794 0.1 1015525
15:00−6ссз358897 0.1 1015546
18:00−8сз2394100 0.1 101671
21:00−10с239699 0.1 101948
1 марта, пн
пн100:00−11ссв229582 0.0 102023
03:00−13с229641 0.0 102220
06:00−13с229611 0.0 102320
09:00−12ссз129410 0.0 1026104
12:00−8зсз128680 0.0 1026319
15:00−5зюз248889 0.0 1025445
18:00−9зюз349454 0.0 102458
21:00−7зюз499651 0.0 1023198
2 марта, вт
вт200:00−5зюз51195100 0.1 1020363
03:00−3зюз61394100 0.3 1017509
06:00−2зюз71496100 1.1 1012609
09:000з71497100 2.8 1009767
12:000зсз71297100 0.8 1007751
15:000сз71298100 1.3 1007900
18:00−1сз61391100 0.1 1008603
21:00−2сз5129198 0.2 1010511
3 марта, ср
ср300:00−3сз5129599 0.2 1010601
03:00−3сз5119399 0.4 1010551
06:00−4сз6129397 0.1 1011696
09:00−4сз7129098 0.2 1012976
12:00−3ссз71187100 0.3 10141157
15:00−3ссз71183100 0.4 10151197
18:00−4сз5118697 0.1 1016384
21:00−7сз489471 0.1 1019193
4 марта, чт
чт400:00−8сз36940 0.0 1020127
03:00−9зсз369520 0.0 1020123
06:00−9з369782 0.0 1021123
09:00−6зюз489475 0.1 1020260
12:00−2зюз5108894 0.0 1019489
15:00−1зюз6118775 0.0 1017657
18:00−2юз5148784 0.0 1015500
21:00−2юз6158490 0.0 1013557